TimeCST,TemperatureF,Dew PointF,Humidity,Sea Level PressureIn,VisibilityMPH,Wind Direction,Wind SpeedMPH,Gust SpeedMPH,PrecipitationIn,Events,Conditions,WindDirDegrees,DateUTC
12:15 AM,41.0,35.6,81,29.96,9.0,SSE,9.2,-,0.01,,Overcast,150,2012-12-15 06:15:00
12:35 AM,41.0,35.6,81,29.96,10.0,SE,8.1,-,0.02,,Overcast,140,2012-12-15 06:35:00
12:55 AM,41.0,35.6,81,29.95,9.0,SE,8.1,-,0.03,,Overcast,140,2012-12-15 06:55:00
1:15 AM,39.2,35.6,87,29.94,10.0,SE,10.4,-,0.02,,Overcast,130,2012-12-15 07:15:00
1:35 AM,39.2,35.6,87,29.93,8.0,SE,6.9,-,0.05,,Overcast,130,2012-12-15 07:35:00
1:55 AM,39.2,35.6,87,29.92,10.0,ESE,8.1,-,0.06,,Overcast,120,2012-12-15 07:55:00
2:15 AM,41.0,35.6,81,29.92,10.0,SE,9.2,-,N/A,,Overcast,130,2012-12-15 08:15:00
2:35 AM,41.0,35.6,81,29.91,10.0,SE,8.1,-,N/A,,Overcast,130,2012-12-15 08:35:00
2:55 AM,41.0,35.6,81,29.91,10.0,SE,9.2,-,N/A,,Overcast,140,2012-12-15 08:55:00
3:15 AM,41.0,35.6,81,29.91,10.0,SSE,9.2,-,N/A,,Overcast,150,2012-12-15 09:15:00
3:35 AM,41.0,35.6,81,29.91,10.0,SE,9.2,-,N/A,,Overcast,140,2012-12-15 09:35:00
3:55 AM,41.0,35.6,81,29.89,10.0,SE,9.2,-,0.01,,Overcast,130,2012-12-15 09:55:00
4:15 AM,41.0,35.6,81,29.89,10.0,ESE,9.2,-,N/A,,Overcast,120,2012-12-15 10:15:00
4:35 AM,41.0,35.6,81,29.86,10.0,ESE,10.4,-,0.01,,Overcast,120,2012-12-15 10:35:00
4:55 AM,39.2,35.6,87,29.83,10.0,ESE,12.7,-,0.03,,Overcast,120,2012-12-15 10:55:00
5:15 AM,39.2,35.6,87,29.79,9.0,ESE,17.3,23.0,0.03,,Overcast,110,2012-12-15 11:15:00
5:35 AM,39.2,35.6,87,29.77,10.0,ESE,16.1,-,0.04,,Overcast,120,2012-12-15 11:35:00
5:55 AM,41.0,35.6,81,29.77,10.0,ESE,15.0,21.9,0.04,,Overcast,120,2012-12-15 11:55:00
6:15 AM,41.0,35.6,81,29.79,10.0,SE,11.5,18.4,N/A,,Overcast,140,2012-12-15 12:15:00
6:35 AM,39.2,35.6,87,29.77,7.0,SE,13.8,21.9,N/A,,Overcast,130,2012-12-15 12:35:00
6:55 AM,39.2,35.6,87,29.71,8.0,ESE,15.0,27.6,0.01,,Overcast,110,2012-12-15 12:55:00
7:15 AM,41.0,37.4,87,29.73,10.0,SE,13.8,21.9,0.01,,Overcast,140,2012-12-15 13:15:00
7:35 AM,41.0,37.4,87,29.72,10.0,SE,15.0,23.0,0.01,,Overcast,140,2012-12-15 13:35:00
7:55 AM,42.8,37.4,81,29.71,8.0,SE,15.0,21.9,0.02,,Overcast,140,2012-12-15 13:55:00
8:15 AM,42.8,37.4,81,29.71,7.0,SE,12.7,20.7,0.02,,Overcast,140,2012-12-15 14:15:00
8:35 AM,42.8,37.4,81,29.70,5.0,SSE,12.7,20.7,0.06,,Overcast,150,2012-12-15 14:35:00
8:55 AM,42.8,39.2,87,29.69,4.0,SE,12.7,20.7,0.06,,Overcast,140,2012-12-15 14:55:00
9:15 AM,42.8,39.2,87,29.68,4.0,SE,13.8,18.4,N/A,,Overcast,140,2012-12-15 15:15:00
9:35 AM,42.8,39.2,87,29.67,3.0,SE,9.2,17.3,N/A,,Overcast,140,2012-12-15 15:35:00
9:55 AM,42.8,39.2,87,29.67,3.0,SSE,10.4,-,N/A,,Overcast,150,2012-12-15 15:55:00
10:15 AM,44.6,41.0,87,29.66,5.0,SSE,11.5,-,0.01,,Overcast,150,2012-12-15 16:15:00
10:35 AM,44.6,42.8,93,29.65,6.0,South,6.9,-,0.01,,Overcast,170,2012-12-15 16:35:00
10:55 AM,44.6,42.8,93,29.64,5.0,SSE,5.8,-,0.01,,Overcast,160,2012-12-15 16:55:00
11:15 AM,44.6,42.8,93,29.62,9.0,South,8.1,-,N/A,,Overcast,170,2012-12-15 17:15:00
11:35 AM,46.4,42.8,87,29.61,8.0,South,8.1,-,N/A,,Overcast,170,2012-12-15 17:35:00
11:55 AM,46.4,44.6,93,29.60,7.0,SSE,8.1,-,N/A,,Overcast,160,2012-12-15 17:55:00
12:15 PM,46.4,44.6,93,29.58,5.0,SSE,6.9,-,0.01,,Overcast,160,2012-12-15 18:15:00
12:35 PM,46.4,44.6,93,29.57,5.0,SSE,8.1,-,0.02,,Overcast,160,2012-12-15 18:35:00
12:55 PM,46.4,44.6,93,29.56,6.0,SSE,9.2,-,0.02,,Overcast,160,2012-12-15 18:55:00
1:15 PM,48.2,44.6,87,29.55,8.0,SSE,5.8,16.1,0.01,,Overcast,160,2012-12-15 19:15:00
1:35 PM,48.2,44.6,87,29.53,4.0,SSE,6.9,-,0.01,,Overcast,160,2012-12-15 19:35:00
1:55 PM,48.2,44.6,87,29.53,4.0,SSE,10.4,-,0.02,,Overcast,160,2012-12-15 19:55:00
2:15 PM,48.2,44.6,87,29.52,5.0,South,6.9,-,N/A,,Overcast,170,2012-12-15 20:15:00
2:35 PM,48.2,46.4,93,29.53,5.0,South,8.1,-,N/A,,Overcast,180,2012-12-15 20:35:00
2:55 PM,48.2,46.4,93,29.53,7.0,South,6.9,-,N/A,,Overcast,190,2012-12-15 20:55:00
3:15 PM,48.2,46.4,93,29.53,5.0,SSW,6.9,-,0.01,,Overcast,200,2012-12-15 21:15:00
3:35 PM,48.2,46.4,93,29.53,7.0,SSW,3.5,-,0.01,,Overcast,210,2012-12-15 21:35:00
3:55 PM,48.2,46.4,93,29.54,10.0,SSW,5.8,-,0.01,,Overcast,200,2012-12-15 21:55:00
4:15 PM,48.2,46.4,93,29.54,10.0,SW,3.5,-,N/A,,Overcast,230,2012-12-15 22:15:00
4:35 PM,48.2,46.4,93,29.55,10.0,WSW,4.6,-,N/A,,Overcast,240,2012-12-15 22:35:00
4:55 PM,48.2,46.4,93,29.56,10.0,SW,5.8,-,N/A,,Overcast,230,2012-12-15 22:55:00
5:15 PM,48.2,46.4,93,29.56,10.0,WSW,5.8,-,N/A,,Overcast,240,2012-12-15 23:15:00
5:35 PM,48.2,44.6,87,29.57,10.0,WSW,4.6,-,N/A,,Overcast,240,2012-12-15 23:35:00
5:55 PM,48.2,44.6,87,29.56,7.0,WSW,4.6,-,N/A,,Mostly Cloudy,240,2012-12-15 23:55:00
6:15 PM,48.2,44.6,87,29.57,10.0,WSW,5.8,-,N/A,,Overcast,250,2012-12-16 00:15:00
6:35 PM,48.2,44.6,87,29.58,10.0,WSW,6.9,-,N/A,,Overcast,240,2012-12-16 00:35:00
7:15 PM,48.2,46.4,93,29.58,8.0,WSW,6.9,-,N/A,,Overcast,240,2012-12-16 01:15:00
7:35 PM,48.2,44.6,87,29.58,10.0,WSW,6.9,-,N/A,,Overcast,240,2012-12-16 01:35:00
7:55 PM,48.2,44.6,87,29.58,10.0,WSW,4.6,-,N/A,,Overcast,240,2012-12-16 01:55:00
8:15 PM,48.2,44.6,87,29.58,9.0,WSW,5.8,-,N/A,,Overcast,240,2012-12-16 02:15:00
8:35 PM,48.2,46.4,93,29.57,5.0,WSW,6.9,-,N/A,,Overcast,240,2012-12-16 02:35:00
8:55 PM,48.2,44.6,87,29.57,8.0,WSW,5.8,-,N/A,,Overcast,240,2012-12-16 02:55:00
9:15 PM,48.2,44.6,87,29.57,8.0,WSW,3.5,-,N/A,,Overcast,240,2012-12-16 03:15:00
9:35 PM,48.2,44.6,87,29.57,10.0,SW,5.8,-,N/A,,Overcast,230,2012-12-16 03:35:00
9:55 PM,48.2,44.6,87,29.57,10.0,WSW,4.6,-,N/A,,Overcast,240,2012-12-16 03:55:00
10:15 PM,48.2,44.6,87,29.57,10.0,WSW,6.9,-,N/A,,Overcast,240,2012-12-16 04:15:00
10:35 PM,48.2,44.6,87,29.57,10.0,WSW,9.2,-,N/A,,Overcast,240,2012-12-16 04:35:00
10:55 PM,48.2,44.6,87,29.57,10.0,WSW,6.9,-,N/A,,Overcast,240,2012-12-16 04:55:00
11:15 PM,48.2,44.6,87,29.58,10.0,WSW,9.2,-,N/A,,Overcast,240,2012-12-16 05:15:00
11:35 PM,48.2,44.6,87,29.58,10.0,WSW,9.2,-,N/A,,Overcast,240,2012-12-16 05:35:00
11:55 PM,48.2,44.6,87,29.58,10.0,WSW,10.4,-,N/A,,Overcast,240,2012-12-16 05:55:00